Regional Weather Roundup
Issued by NWS Upton, NY

Current Version | Previous Version | Graphics & Text | Print | Product List | Glossary Off
Versions: 1 2 3 4 5 6 7 8 9 10 11 12 13 14 15 16 17 18 19 20 21 22 23 24 25 26 27

000
ASUS41 KOKX 210309
RWROKX

REGIONAL WEATHER ROUNDUP
NATIONAL WEATHER SERVICE NEW YORK NY
1100 PM EDT THU JUL 20 2017

NOTE: "FAIR" INDICATES FEW OR NO CLOUDS BELOW 12,000 FEET WITH NO
SIGNIFICANT WEATHER AND/OR OBSTRUCTIONS TO VISIBILITY.

NYZ071-072-176-178-NJZ106-104-210400-
NEW YORK CITY METRO AREA

CITY           SKY/WX    TMP DP  RH WIND       PRES   REMARKS
Central Park   PTCLDY    78  68  71 CALM      29.91F
Bronx Bot Gard   N/A     79  64  61 NW1       29.90S
LaGuardia APRT PTCLDY    82  70  66 W5        29.87F
Kennedy INTL   CLOUDY    82  70  66 W12       29.88F
Breezy Point     N/A     75 N/A N/A W5          N/A
Newark/Liberty MOCLDY    77  69  76 SW6       29.88F
Teterboro      PTCLDY    78  67  68 W3        29.87F
$$

NYZ177-179-078>081-210400-
LONG ISLAND NEW YORK

CITY           SKY/WX    TMP DP  RH WIND       PRES   REMARKS
Jones Beach      N/A     79 N/A N/A W13         N/A
Matinecock PT    N/A     77 N/A N/A SW6         N/A
Farmingdale    CLOUDY    80  69  69 W9        29.87R
MacArthur/ISP  CLOUDY    81  71  71 W12       29.86R
Shirley        CLOUDY    81  77  88 W5        29.86R
Mt Sinai Harb    N/A    N/A N/A N/A W6          N/A
Westhampton    CLOUDY    78  72  81 W9        29.87R
East Hampton   FAIR      77  73  88 W5        29.84S
Montauk          N/A     78  76  93 SW5       29.85R
$$

NYZ052-065-067-210400-
HUDSON VALLEY

CITY           SKY/WX    TMP DP  RH WIND       PRES   REMARKS
White Plains   NOT AVBL
Larchmont Harb   N/A     79 N/A N/A W12         N/A
Croton O-T Hud   N/A     79 N/A N/A W5          N/A
Newburgh       PTCLDY    70  70 100 W12       29.91S
Montgomery     FOG       69  68  96 CALM      29.90S VSB 1/2
Poughkeepsie   CLEAR     70  68  93 CALM      29.88S
Albany         PTCLDY    71  63  75 CALM      29.88F
$$

NJZ001-105-106-008-010-013-015-019>022-104-210400-
NEW JERSEY

CITY           SKY/WX    TMP DP  RH WIND       PRES   REMARKS
Newark/Liberty MOCLDY    77  69  76 SW6       29.88F
Teterboro      PTCLDY    78  67  68 W3        29.87F
Caldwell       CLEAR     73  68  84 CALM      29.89F
Somerville     FOG       71  70  96 CALM      29.88F VSB 3/4
Linden         FAIR      75  71  86 CALM      29.89S
Perth Amboy      N/A     73 N/A N/A W8          N/A
Sussex         PTCLDY    70  69  97 SW3       29.91S
Andover          N/A     69  68  96 CALM      29.92F
Trenton        PTCLDY    74  71  91 W5        29.90F
Millville      PTCLDY    81  78  91 CALM      29.91F
Atlantic City  PTCLDY    84  76  76 SW9       29.91F HX  93
Wrightstown    CLOUDY    74  71  92 SW3       29.89S
Toms River     CLOUDY    78  69  73 SW3       29.91F
Belmar         CLOUDY    73  72  96 W3        29.91S
$$

PAZ047>061-062-071-210400-
EASTERN PENNSYLVANIA

CITY           SKY/WX    TMP DP  RH WIND       PRES   REMARKS
Philadelphia   CLOUDY    82  68  62 E6        29.91S
Allentown      CLOUDY    71  68  90 NW3       29.92S
Scranton       CLOUDY    73  71  93 CALM      29.95R
$$

CTZ002-004>006-009-010-012-RIZ004-006-007-MAZ004-011-015-210400-
SOUTHERN NEW ENGLAND
 IN CT

CITY           SKY/WX    TMP DP  RH WIND       PRES   REMARKS
Bradley INTL   MOCLDY    74  70  87 VRB3      29.86S
Hartford       CLEAR     76  70  82 CALM      29.85S
Danbury        CLEAR     71  68  90 W6        29.89S
Wtrbury/Oxford CLEAR     73  63  68 NW5       29.88F
Bridgeport     LGT RAIN  81  66  60 W6        29.84S
Meriden        CLEAR     75  69  81 CALM      29.85S
New Haven      PTCLDY    82  67  60 NW5       29.85S
Chester        FAIR      79  73  83 NW3       29.87S
Groton         CLOUDY    75  72  90 S3        29.83F
Wilimantic     PTCLDY    74  72  93 NE3       29.87R

 IN RI

CITY           SKY/WX    TMP DP  RH WIND       PRES   REMARKS
Providence     CLOUDY    79  74  84 W5        29.84S
Block Island   MOCLDY    76  74  93 SW10      29.85S
Westerly       CLOUDY    78  73  84 S3        29.85S
 IN MA

CITY           SKY/WX    TMP DP  RH WIND       PRES   REMARKS
Boston         PTCLDY    72  67  84 S5        29.84S
Worcester      CLEAR     73  64  73 W6        29.89F
Westfield      PTCLDY    71  69  93 CALM      29.86S
Provincetown   CLOUDY    74  68  81 CALM      29.84R
Nantucket      FOG       72  72 100 SW7       29.85F VSB 1/4
$$

ANZ330-335-338-340-345-350-353-355-210400-
COASTAL MARINE OBSERVATIONS


STATION/POSITION TIME  SKY/WX   TEMP    WIND        PRES    VSBY  WAVE
                                AIR SEA DIR/SP/G                  HT/PER
                 (UTC)          (F)     (DEG/KT/KT) (MB)    (MI)  (FT/S)
NY HARB ENTRANCE 0150            78 77  260/ 19/ 21 1010.8          3/ 5
20 S FIRE ISLAND 0250            78 75  270/ 14/ 16 1010.8          4/ 5
GREAT SOUTH BAY  0230            82 82  270/  8/ 12   N/A
23 SSW MONTAUK P 0150            78 76              1010.3          3/ 5
15 E BARNEGAT LI 0230               78                N/A           3/15
HUDSON CANYON    0150            80 79  230/ 16/ 19 1012.0          4/ 5
KINGS POINT      0242            78 73  290/  6/  8 1011.5
EXECUTION ROCKS  0245            78     250/  8/ 10   N/A
CENTRAL LI SOUND 0215            80     280/ 10/ 16   N/A           2
EASTERN LI SOUND NOT AVBL
ROBBINS REEF     0236                   260/  7/  9 1012.6
$$


>>>>>>>>>>>>>>>>>>>>>>>>>>>> KEY <<<<<<<<<<<<<<<<<<<<<<<<<<<
>                                                          <
>     SKY/WX - Sky Condition/Present Weather               <
>     TMP    - Temperature in Fahrenheit                   <
>     DP     - Dew Point in Fahrenheit                     <
>     RH     - Relative Humidity in Percent                <
>     WIND   - Direction (from) and Speed in MPH           <
>     PRES   - Mean Sea Level Pressure (inches of Hg)      <
>     WCI    - Wind Chill Index                            <
>     VSB    - VISIBILITY IN MILES                         <
>     HX     - HEAT INDEX                                  <
>     TC     - TEMPERATURE IN CELSIUS                      <
>     VRB    - VARIABLE WIND DIRECTION                     <
>                                                          <
>>>>>>>>>>>>>>>>>>>>>>>>>>>> KEY <<<<<<<<<<<<<<<<<<<<<<<<<<<




USA.gov is the U.S. government's official web portal to all federal, state and local government web resources and services.